sat.trackr.live / text

‹ back to catalog

SINAH 1

NORAD 28893 · 2005-043D

PAYLOAD ACTIVE UNKNOWN

§ Identity

Operator
Country
IRAN
Launch date
2005-10-27
Launch site
PLMSC
Launch vehicle
Mass (kg)
RCS (m²)
0.71

Purposes: earth_obs

External: N2YO · Heavens-Above · Gunter

§ Orbital elements

Epoch: 2026-09-10T04:52:53.193216Z

Period
98.35 min
Inclination
98.2979°
Eccentricity
0.0014660
Mean motion
14.64206698 rev/d
Perigee alt
669.3 km
Apogee alt
690.0 km
Semi-major
7,057.8 km
B*
4.3231e-5
RAAN
28.0820°
Arg perigee
15.2914°
Mean anomaly
344.8728°
Rev number
11,296

§ Raw data

SINAH 11 28893U 05043D   26253.20339344  .00000178  00000+0  43231-4 0  99902 28893  98.2979  28.0820 0014660  15.2914 344.8728 14.64206698112966

JSON: /api/v1/satellites/28893 · /tle

For live sub-satellite position, see the globe view (requires WebGL).

§ Visibility from observer

Set your observer location to see the next 7 days of passes ≥ 10°. The values pass through the URL so the page stays shareable.

No JS? Fill the form by hand. The geolocation button needs JavaScript.